www.cux-wetter.de
Wetterdaten: Dienstag, 21.10.2008
Datum Zeit Temp. A. Feuchte A. Luftdruck Regen Wind Richtung Richtung Sonnenschein Solar Taupunkt Windchill Windben
21.10.2008 00:04 13,2 C 86 % 1002,5 hPa 0,0 l/m 13,2 km/h (3 Bft) W-SW 255 0 min 0 W/m 10,9 C 9,7 C 13,2 km/h (3 Bft)
21.10.2008 00:09 13,3 C 86 % 1002,5 hPa 0,0 l/m 13,2 km/h (3 Bft) W-SW 255 0 min 0 W/m 11,0 C 9,8 C 13,2 km/h (3 Bft)
21.10.2008 00:14 13,5 C 86 % 1002,5 hPa 0,0 l/m 13,2 km/h (3 Bft) W-SW 255 0 min 0 W/m 11,2 C 10,1 C 13,2 km/h (3 Bft)
21.10.2008 00:19 13,6 C 86 % 1002,5 hPa 0,0 l/m 13,2 km/h (3 Bft) W-SW 255 0 min 0 W/m 11,3 C 10,2 C 13,2 km/h (3 Bft)
21.10.2008 00:24 13,7 C 86 % 1002,5 hPa 0,0 l/m 13,2 km/h (3 Bft) W-SW 255 0 min 0 W/m 11,4 C 10,3 C 13,2 km/h (3 Bft)
21.10.2008 00:29 13,7 C 85 % 1002,5 hPa 0,0 l/m 13,2 km/h (3 Bft) W-SW 255 0 min 0 W/m 11,2 C 10,3 C 13,2 km/h (3 Bft)
21.10.2008 00:34 13,8 C 85 % 1002,5 hPa 0,0 l/m 13,2 km/h (3 Bft) W-SW 255 0 min 0 W/m 11,3 C 10,4 C 13,2 km/h (3 Bft)
21.10.2008 00:38 13,8 C 86 % 1002,5 hPa 0,0 l/m 13,2 km/h (3 Bft) W-SW 255 0 min 0 W/m 11,5 C 10,4 C 13,2 km/h (3 Bft)
21.10.2008 00:44 13,8 C 86 % 1002,5 hPa 0,0 l/m 13,2 km/h (3 Bft) W-SW 255 0 min 0 W/m 11,5 C 10,4 C 13,2 km/h (3 Bft)
21.10.2008 00:49 13,8 C 86 % 1002,5 hPa 0,0 l/m 13,2 km/h (3 Bft) W-SW 255 0 min 0 W/m 11,5 C 10,4 C 13,2 km/h (3 Bft)
21.10.2008 00:54 13,8 C 86 % 1002,5 hPa 0,0 l/m 17,5 km/h (3 Bft) W-SW 255 0 min 0 W/m 11,5 C 8,9 C 17,5 km/h (3 Bft)
21.10.2008 00:59 13,8 C 86 % 1002,5 hPa 0,0 l/m 17,5 km/h (3 Bft) W-SW 255 0 min 0 W/m 11,5 C 8,9 C 17,5 km/h (3 Bft)
21.10.2008 01:04 13,7 C 85 % 1001,5 hPa 0,0 l/m 17,5 km/h (3 Bft) W-SW 255 0 min 0 W/m 11,2 C 8,8 C 17,5 km/h (3 Bft)
21.10.2008 01:09 13,7 C 85 % 1001,5 hPa 0,0 l/m 17,5 km/h (3 Bft) W-SW 255 0 min 0 W/m 11,2 C 8,8 C 17,5 km/h (3 Bft)
21.10.2008 01:14 13,6 C 86 % 1001,5 hPa 0,0 l/m 17,5 km/h (3 Bft) W-SW 255 0 min 0 W/m 11,3 C 8,7 C 17,5 km/h (3 Bft)
21.10.2008 01:19 13,6 C 86 % 1001,5 hPa 0,0 l/m 17,5 km/h (3 Bft) W-SW 255 0 min 0 W/m 11,3 C 8,7 C 17,5 km/h (3 Bft)
21.10.2008 01:24 13,6 C 86 % 1001,5 hPa 0,0 l/m 17,5 km/h (3 Bft) W-SW 255 0 min 0 W/m 11,3 C 8,7 C 17,5 km/h (3 Bft)
21.10.2008 01:29 13,5 C 86 % 1001,5 hPa 0,0 l/m 17,5 km/h (3 Bft) W-SW 255 0 min 0 W/m 11,2 C 8,5 C 17,5 km/h (3 Bft)
21.10.2008 01:34 13,5 C 87 % 1001,5 hPa 0,0 l/m 18,8 km/h (3 Bft) W-SW 240 0 min 0 W/m 11,4 C 8,1 C 18,8 km/h (3 Bft)
21.10.2008 01:39 13,5 C 87 % 1001,5 hPa 0,0 l/m 18,8 km/h (3 Bft) W-SW 240 0 min 0 W/m 11,4 C 8,1 C 18,8 km/h (3 Bft)
21.10.2008 01:44 13,6 C 87 % 1001,5 hPa 0,0 l/m 21,0 km/h (4 Bft) W-SW 240 0 min 0 W/m 11,5 C 7,7 C 21,0 km/h (4 Bft)
21.10.2008 01:49 13,6 C 87 % 1001,5 hPa 0,0 l/m 21,0 km/h (4 Bft) W-SW 240 0 min 0 W/m 11,5 C 7,7 C 21,0 km/h (4 Bft)
21.10.2008 01:54 13,7 C 87 % 1001,5 hPa 0,0 l/m 21,0 km/h (4 Bft) W-SW 240 0 min 0 W/m 11,6 C 7,8 C 21,0 km/h (4 Bft)
21.10.2008 01:59 13,7 C 86 % 1001,5 hPa 0,0 l/m 21,0 km/h (4 Bft) W-SW 240 0 min 0 W/m 11,4 C 7,8 C 21,0 km/h (4 Bft)
21.10.2008 02:04 13,8 C 86 % 1001,5 hPa 0,0 l/m 21,0 km/h (4 Bft) W-SW 240 0 min 0 W/m 11,5 C 7,9 C 21,0 km/h (4 Bft)
21.10.2008 02:09 13,8 C 85 % 1000,5 hPa 0,0 l/m 21,0 km/h (4 Bft) W-SW 240 0 min 0 W/m 11,3 C 7,9 C 21,0 km/h (4 Bft)
21.10.2008 02:14 13,9 C 85 % 1000,5 hPa 0,0 l/m 21,0 km/h (4 Bft) W-SW 240 0 min 0 W/m 11,4 C 8,1 C 21,0 km/h (4 Bft)
21.10.2008 02:19 13,9 C 85 % 1000,5 hPa 0,0 l/m 21,0 km/h (4 Bft) W-SW 240 0 min 0 W/m 11,4 C 8,1 C 21,0 km/h (4 Bft)
21.10.2008 02:24 13,9 C 85 % 1000,5 hPa 0,0 l/m 21,0 km/h (4 Bft) W-SW 240 0 min 0 W/m 11,4 C 8,1 C 21,0 km/h (4 Bft)
21.10.2008 02:29 13,9 C 85 % 1000,5 hPa 0,0 l/m 21,0 km/h (4 Bft) W-SW 240 0 min 0 W/m 11,4 C 8,1 C 21,0 km/h (4 Bft)
21.10.2008 02:34 13,9 C 85 % 1000,5 hPa 0,0 l/m 21,0 km/h (4 Bft) W-SW 240 0 min 0 W/m 11,4 C 8,1 C 21,0 km/h (4 Bft)
21.10.2008 02:39 13,9 C 85 % 1000,5 hPa 0,0 l/m 21,0 km/h (4 Bft) W-SW 240 0 min 0 W/m 11,4 C 8,1 C 21,0 km/h (4 Bft)
21.10.2008 02:44 13,9 C 85 % 1000,5 hPa 0,0 l/m 21,0 km/h (4 Bft) W-SW 240 0 min 0 W/m 11,4 C 8,1 C 21,0 km/h (4 Bft)
21.10.2008 02:49 13,9 C 85 % 1000,5 hPa 0,0 l/m 21,0 km/h (4 Bft) W-SW 240 0 min 0 W/m 11,4 C 8,1 C 21,0 km/h (4 Bft)
21.10.2008 02:54 13,9 C 85 % 1000,5 hPa 0,0 l/m 21,0 km/h (4 Bft) W-SW 240 0 min 0 W/m 11,4 C 8,1 C 21,0 km/h (4 Bft)
21.10.2008 02:59 14,0 C 85 % 1000,5 hPa 0,0 l/m 21,0 km/h (4 Bft) W-SW 240 0 min 0 W/m 11,5 C 8,2 C 21,0 km/h (4 Bft)
21.10.2008 03:04 14,0 C 85 % 1000,5 hPa 0,0 l/m 21,8 km/h (4 Bft) W-SW 255 0 min 0 W/m 11,5 C 8,0 C 21,8 km/h (4 Bft)
21.10.2008 03:09 14,0 C 84 % 1000,5 hPa 0,0 l/m 21,8 km/h (4 Bft) W-SW 255 0 min 0 W/m 11,3 C 8,0 C 21,8 km/h (4 Bft)
21.10.2008 03:14 14,0 C 84 % 1000,5 hPa 0,0 l/m 21,8 km/h (4 Bft) W-SW 255 0 min 0 W/m 11,3 C 8,0 C 21,8 km/h (4 Bft)
21.10.2008 03:19 14,0 C 84 % 1000,5 hPa 0,0 l/m 21,8 km/h (4 Bft) W-SW 255 0 min 0 W/m 11,3 C 8,0 C 21,8 km/h (4 Bft)
21.10.2008 03:24 14,0 C 85 % 1000,5 hPa 0,0 l/m 21,8 km/h (4 Bft) W-SW 255 0 min 0 W/m 11,5 C 8,0 C 21,8 km/h (4 Bft)
21.10.2008 03:29 14,0 C 85 % 1000,5 hPa 0,0 l/m 21,8 km/h (4 Bft) W-SW 255 0 min 0 W/m 11,5 C 8,0 C 21,8 km/h (4 Bft)
21.10.2008 03:34 14,0 C 85 % 1000,5 hPa 0,0 l/m 21,8 km/h (4 Bft) W-SW 255 0 min 0 W/m 11,5 C 8,0 C 21,8 km/h (4 Bft)
21.10.2008 03:39 14,0 C 85 % 1000,5 hPa 0,0 l/m 21,8 km/h (4 Bft) W-SW 255 0 min 0 W/m 11,5 C 8,0 C 21,8 km/h (4 Bft)
21.10.2008 03:44 14,2 C 85 % 1000,5 hPa 0,0 l/m 21,8 km/h (4 Bft) W-SW 255 0 min 0 W/m 11,7 C 8,3 C 21,8 km/h (4 Bft)
21.10.2008 03:49 14,2 C 84 % 1000,5 hPa 0,0 l/m 21,8 km/h (4 Bft) W-SW 255 0 min 0 W/m 11,5 C 8,3 C 21,8 km/h (4 Bft)
21.10.2008 03:54 14,3 C 84 % 1000,5 hPa 0,0 l/m 21,8 km/h (4 Bft) W-SW 255 0 min 0 W/m 11,6 C 8,4 C 21,8 km/h (4 Bft)
21.10.2008 03:59 14,4 C 84 % 1000,5 hPa 0,0 l/m 21,8 km/h (4 Bft) W-SW 255 0 min 0 W/m 11,7 C 8,5 C 21,8 km/h (4 Bft)
21.10.2008 04:04 14,4 C 83 % 1000,5 hPa 0,0 l/m 21,8 km/h (4 Bft) W-SW 255 0 min 0 W/m 11,5 C 8,5 C 21,8 km/h (4 Bft)
21.10.2008 04:09 14,4 C 84 % 999,5 hPa 0,0 l/m 21,8 km/h (4 Bft) W-SW 255 0 min 0 W/m 11,7 C 8,5 C 21,8 km/h (4 Bft)
21.10.2008 04:14 14,3 C 84 % 999,5 hPa 0,0 l/m 21,8 km/h (4 Bft) W-SW 255 0 min 0 W/m 11,6 C 8,4 C 21,8 km/h (4 Bft)
21.10.2008 04:19 14,3 C 84 % 999,5 hPa 0,0 l/m 21,8 km/h (4 Bft) W-SW 255 0 min 0 W/m 11,6 C 8,4 C 21,8 km/h (4 Bft)
21.10.2008 04:24 14,2 C 84 % 999,5 hPa 0,0 l/m 21,8 km/h (4 Bft) W-SW 255 0 min 0 W/m 11,5 C 8,3 C 21,8 km/h (4 Bft)
21.10.2008 04:29 14,3 C 84 % 999,5 hPa 0,0 l/m 21,8 km/h (4 Bft) W-SW 255 0 min 0 W/m 11,6 C 8,4 C 21,8 km/h (4 Bft)
21.10.2008 04:34 14,3 C 84 % 999,5 hPa 0,0 l/m 21,8 km/h (4 Bft) W-SW 255 0 min 0 W/m 11,6 C 8,4 C 21,8 km/h (4 Bft)
21.10.2008 04:39 14,3 C 84 % 999,5 hPa 0,0 l/m 21,8 km/h (4 Bft) W-SW 255 0 min 0 W/m 11,6 C 8,4 C 21,8 km/h (4 Bft)
21.10.2008 04:44 14,3 C 84 % 999,5 hPa 0,0 l/m 21,8 km/h (4 Bft) W-SW 255 0 min 0 W/m 11,6 C 8,4 C 21,8 km/h (4 Bft)
21.10.2008 04:49 14,3 C 85 % 1000,5 hPa 0,0 l/m 30,2 km/h (5 Bft) W 260 0 min 0 W/m 11,8 C 6,7 C 30,2 km/h (5 Bft)
21.10.2008 04:54 14,3 C 85 % 1000,5 hPa 0,0 l/m 32,4 km/h (5 Bft) W 265 0 min 0 W/m 11,8 C 6,3 C 32,4 km/h (5 Bft)
21.10.2008 04:59 14,2 C 86 % 1000,5 hPa 0,0 l/m 37,6 km/h (5 Bft) W 265 0 min 0 W/m 11,9 C 5,4 C 37,6 km/h (5 Bft)
21.10.2008 05:04 14,2 C 87 % 1000,5 hPa 0,0 l/m 32,0 km/h (5 Bft) W 270 0 min 0 W/m 12,1 C 6,2 C 32,0 km/h (5 Bft)
21.10.2008 05:09 14,0 C 88 % 1000,5 hPa 0,0 l/m 35,4 km/h (5 Bft) W 265 0 min 0 W/m 12,0 C 5,4 C 35,4 km/h (5 Bft)
21.10.2008 05:14 14,0 C 88 % 1000,5 hPa 0,0 l/m 38,3 km/h (6 Bft) W 265 0 min 0 W/m 12,0 C 5,0 C 38,3 km/h (6 Bft)
21.10.2008 05:19 13,8 C 90 % 1000,5 hPa 0,0 l/m 30,1 km/h (5 Bft) W 270 0 min 0 W/m 12,2 C 6,0 C 30,1 km/h (5 Bft)
21.10.2008 05:24 13,5 C 89 % 1000,5 hPa 0,3 l/m 22,3 km/h (4 Bft) W-NW 295 0 min 0 W/m 11,7 C 7,2 C 22,3 km/h (4 Bft)
21.10.2008 05:29 13,2 C 89 % 1000,5 hPa 0,0 l/m 16,8 km/h (3 Bft) W-NW 295 0 min 0 W/m 11,4 C 8,4 C 16,8 km/h (3 Bft)
21.10.2008 05:34 12,9 C 91 % 1000,5 hPa 0,0 l/m 18,9 km/h (3 Bft) W-NW 300 0 min 0 W/m 11,5 C 7,4 C 18,9 km/h (3 Bft)
21.10.2008 05:39 12,7 C 91 % 1000,5 hPa 0,0 l/m 18,7 km/h (3 Bft) NW 305 0 min 0 W/m 11,3 C 7,2 C 18,7 km/h (3 Bft)
21.10.2008 05:44 12,7 C 91 % 1000,5 hPa 0,0 l/m 19,6 km/h (3 Bft) W-NW 300 0 min 0 W/m 11,3 C 6,9 C 19,6 km/h (3 Bft)
21.10.2008 05:49 12,5 C 92 % 1000,5 hPa 0,0 l/m 20,5 km/h (4 Bft) W-NW 295 0 min 0 W/m 11,2 C 6,4 C 20,5 km/h (4 Bft)
21.10.2008 05:54 12,5 C 92 % 1000,5 hPa 0,0 l/m 19,0 km/h (3 Bft) W 280 0 min 0 W/m 11,2 C 6,8 C 19,0 km/h (3 Bft)
21.10.2008 05:59 12,4 C 93 % 1000,5 hPa 0,3 l/m 19,3 km/h (3 Bft) W-NW 295 0 min 0 W/m 11,3 C 6,6 C 19,3 km/h (3 Bft)
21.10.2008 06:04 12,4 C 93 % 1000,5 hPa 0,0 l/m 18,3 km/h (3 Bft) W-NW 285 0 min 0 W/m 11,3 C 6,9 C 18,3 km/h (3 Bft)
21.10.2008 06:09 12,4 C 93 % 1000,5 hPa 0,0 l/m 20,0 km/h (4 Bft) W-NW 285 0 min 0 W/m 11,3 C 6,4 C 20,0 km/h (4 Bft)
21.10.2008 06:14 12,4 C 93 % 1000,5 hPa 0,0 l/m 17,8 km/h (3 Bft) W-NW 290 0 min 0 W/m 11,3 C 7,1 C 17,8 km/h (3 Bft)
21.10.2008 06:19 12,3 C 93 % 1000,5 hPa 0,0 l/m 19,0 km/h (3 Bft) W 270 0 min 0 W/m 11,2 C 6,6 C 19,0 km/h (3 Bft)
21.10.2008 06:24 12,4 C 93 % 1001,5 hPa 0,0 l/m 19,3 km/h (3 Bft) W 270 0 min 0 W/m 11,3 C 6,6 C 19,3 km/h (3 Bft)
21.10.2008 06:29 12,3 C 93 % 1001,5 hPa 0,0 l/m 19,3 km/h (3 Bft) W 270 0 min 0 W/m 11,2 C 6,5 C 19,3 km/h (3 Bft)
21.10.2008 06:34 12,3 C 93 % 1001,5 hPa 0,0 l/m 16,3 km/h (3 Bft) W-NW 290 0 min 0 W/m 11,2 C 7,4 C 16,3 km/h (3 Bft)
21.10.2008 06:39 12,2 C 93 % 1001,5 hPa 0,0 l/m 18,7 km/h (3 Bft) W-NW 295 0 min 0 W/m 11,1 C 6,5 C 18,7 km/h (3 Bft)
21.10.2008 06:44 12,1 C 93 % 1001,5 hPa 0,0 l/m 22,3 km/h (4 Bft) W-NW 285 0 min 0 W/m 11,0 C 5,4 C 22,3 km/h (4 Bft)
21.10.2008 06:49 12,0 C 93 % 1001,5 hPa 0,0 l/m 16,5 km/h (3 Bft) W-NW 285 0 min 0 W/m 10,9 C 7,0 C 16,5 km/h (3 Bft)
21.10.2008 06:54 12,0 C 94 % 1001,5 hPa 0,3 l/m 18,3 km/h (3 Bft) W-NW 290 0 min 0 W/m 11,1 C 6,4 C 18,3 km/h (3 Bft)
21.10.2008 06:59 12,0 C 94 % 1001,5 hPa 0,0 l/m 18,3 km/h (3 Bft) W-NW 285 0 min 0 W/m 11,1 C 6,4 C 18,3 km/h (3 Bft)
21.10.2008 07:04 12,0 C 94 % 1001,5 hPa 0,0 l/m 22,6 km/h (4 Bft) W-NW 290 0 min 0 W/m 11,1 C 5,1 C 22,6 km/h (4 Bft)
21.10.2008 07:09 11,9 C 94 % 1001,5 hPa 0,0 l/m 21,6 km/h (4 Bft) W 265 0 min 0 W/m 11,0 C 5,3 C 21,6 km/h (4 Bft)
21.10.2008 07:14 11,8 C 94 % 1001,5 hPa 0,3 l/m 22,1 km/h (4 Bft) W 280 0 min 0 W/m 10,9 C 5,0 C 22,1 km/h (4 Bft)
21.10.2008 07:19 11,8 C 94 % 1001,5 hPa 0,0 l/m 21,3 km/h (4 Bft) W 270 0 min 0 W/m 10,9 C 5,2 C 21,3 km/h (4 Bft)
21.10.2008 07:24 11,8 C 94 % 1001,5 hPa 0,0 l/m 19,2 km/h (3 Bft) W 280 0 min 0 W/m 10,9 C 5,9 C 19,2 km/h (3 Bft)
21.10.2008 07:29 11,8 C 94 % 1001,5 hPa 0,3 l/m 20,1 km/h (4 Bft) W 275 0 min 0 W/m 10,9 C 5,6 C 20,1 km/h (4 Bft)
21.10.2008 07:34 11,8 C 94 % 1001,5 hPa 0,0 l/m 14,3 km/h (3 Bft) W 280 0 min 0 W/m 10,9 C 7,6 C 14,3 km/h (3 Bft)
21.10.2008 07:39 11,9 C 94 % 1001,5 hPa 0,0 l/m 18,1 km/h (3 Bft) W-NW 285 0 min 0 W/m 11,0 C 6,3 C 18,1 km/h (3 Bft)
21.10.2008 07:44 11,9 C 94 % 1001,5 hPa 0,3 l/m 16,6 km/h (3 Bft) W-NW 295 0 min 0 W/m 11,0 C 6,8 C 16,6 km/h (3 Bft)
21.10.2008 07:49 11,9 C 94 % 1001,5 hPa 0,0 l/m 16,3 km/h (3 Bft) W-NW 295 0 min 0 W/m 11,0 C 7,0 C 16,3 km/h (3 Bft)
21.10.2008 07:54 11,6 C 94 % 1001,5 hPa 0,0 l/m 26,6 km/h (4 Bft) W-NW 295 0 min 0 W/m 10,7 C 3,6 C 26,6 km/h (4 Bft)
21.10.2008 07:59 11,6 C 94 % 1001,5 hPa 0,0 l/m 23,8 km/h (4 Bft) NW 305 0 min 0 W/m 10,7 C 4,3 C 23,8 km/h (4 Bft)
21.10.2008 08:04 11,5 C 94 % 1001,5 hPa 0,0 l/m 17,5 km/h (3 Bft) NW 305 0 min 0 W/m 10,6 C 6,0 C 17,5 km/h (3 Bft)
21.10.2008 08:09 11,6 C 94 % 1001,5 hPa 0,3 l/m 17,2 km/h (3 Bft) NW 305 0 min 0 W/m 10,7 C 6,3 C 17,2 km/h (3 Bft)
21.10.2008 08:14 11,6 C 94 % 1001,5 hPa 0,0 l/m 14,8 km/h (3 Bft) W-NW 295 0 min 0 W/m 10,7 C 7,2 C 14,8 km/h (3 Bft)
21.10.2008 08:19 11,6 C 93 % 1001,5 hPa 0,0 l/m 20,6 km/h (4 Bft) W-NW 290 0 min 0 W/m 10,5 C 5,2 C 20,6 km/h (4 Bft)
21.10.2008 08:24 11,6 C 93 % 1001,5 hPa 0,0 l/m 19,3 km/h (3 Bft) W 280 0 min 0 W/m 10,5 C 5,6 C 19,3 km/h (3 Bft)
21.10.2008 08:29 11,6 C 93 % 1001,5 hPa 0,0 l/m 19,6 km/h (3 Bft) W-NW 285 0 min 0 W/m 10,5 C 5,5 C 19,6 km/h (3 Bft)
21.10.2008 08:34 11,5 C 92 % 1001,5 hPa 0,0 l/m 17,6 km/h (3 Bft) W 270 0 min 0 W/m 10,2 C 6,0 C 17,6 km/h (3 Bft)
21.10.2008 08:39 11,5 C 92 % 1001,5 hPa 0,0 l/m 16,5 km/h (3 Bft) W 270 0 min 0 W/m 10,2 C 6,4 C 16,5 km/h (3 Bft)
21.10.2008 08:44 11,4 C 91 % 1001,5 hPa 0,0 l/m 21,3 km/h (4 Bft) W 275 0 min 0 W/m 10,0 C 4,7 C 21,3 km/h (4 Bft)
21.10.2008 08:49 11,4 C 91 % 1001,5 hPa 0,0 l/m 19,2 km/h (3 Bft) W 275 0 min 0 W/m 10,0 C 5,3 C 19,2 km/h (3 Bft)
21.10.2008 08:54 11,4 C 91 % 1001,5 hPa 0,0 l/m 20,5 km/h (4 Bft) W 260 0 min 0 W/m 10,0 C 4,9 C 20,5 km/h (4 Bft)
21.10.2008 08:59 11,4 C 91 % 1001,5 hPa 0,0 l/m 21,2 km/h (4 Bft) W 270 0 min 0 W/m 10,0 C 4,7 C 21,2 km/h (4 Bft)
21.10.2008 09:04 11,4 C 91 % 1002,5 hPa 0,0 l/m 26,3 km/h (4 Bft) W 265 0 min 0 W/m 10,0 C 3,4 C 26,3 km/h (4 Bft)
21.10.2008 09:09 11,3 C 91 % 1002,5 hPa 0,0 l/m 24,6 km/h (4 Bft) W 260 0 min 0 W/m 9,9 C 3,7 C 24,6 km/h (4 Bft)
21.10.2008 09:14 11,6 C 91 % 1002,5 hPa 0,0 l/m 20,0 km/h (4 Bft) W-SW 255 0 min 0 W/m 10,2 C 5,4 C 20,0 km/h (4 Bft)
21.10.2008 09:19 11,6 C 90 % 1002,5 hPa 0,0 l/m 22,8 km/h (4 Bft) W 265 0 min 0 W/m 10,0 C 4,6 C 22,8 km/h (4 Bft)
21.10.2008 09:24 11,7 C 89 % 1002,5 hPa 0,0 l/m 18,5 km/h (3 Bft) W 260 0 min 0 W/m 9,9 C 6,0 C 18,5 km/h (3 Bft)
21.10.2008 09:29 11,6 C 87 % 1002,5 hPa 0,3 l/m 21,1 km/h (4 Bft) W 260 0 min 0 W/m 9,5 C 5,0 C 21,1 km/h (4 Bft)
21.10.2008 09:34 11,4 C 87 % 1002,5 hPa 0,0 l/m 24,3 km/h (4 Bft) W 260 0 min 0 W/m 9,3 C 3,9 C 24,3 km/h (4 Bft)
21.10.2008 09:39 11,2 C 87 % 1002,5 hPa 0,0 l/m 23,1 km/h (4 Bft) W-SW 255 0 min 0 W/m 9,1 C 3,9 C 23,1 km/h (4 Bft)
21.10.2008 09:44 11,2 C 88 % 1002,5 hPa 0,0 l/m 24,5 km/h (4 Bft) W 260 0 min 0 W/m 9,3 C 3,6 C 24,5 km/h (4 Bft)
21.10.2008 09:49 11,2 C 89 % 1002,5 hPa 0,0 l/m 24,3 km/h (4 Bft) W 265 0 min 0 W/m 9,5 C 3,6 C 24,3 km/h (4 Bft)
21.10.2008 09:54 11,2 C 89 % 1002,5 hPa 0,0 l/m 25,6 km/h (4 Bft) W 265 0 min 0 W/m 9,5 C 3,3 C 25,6 km/h (4 Bft)
21.10.2008 09:59 11,3 C 89 % 1002,5 hPa 0,0 l/m 22,4 km/h (4 Bft) W 260 0 min 0 W/m 9,6 C 4,3 C 22,4 km/h (4 Bft)
21.10.2008 10:04 11,2 C 88 % 1002,5 hPa 0,0 l/m 24,8 km/h (4 Bft) W 260 0 min 0 W/m 9,3 C 3,5 C 24,8 km/h (4 Bft)
21.10.2008 10:09 11,2 C 88 % 1002,5 hPa 0,0 l/m 25,0 km/h (4 Bft) W 265 0 min 0 W/m 9,3 C 3,5 C 25,0 km/h (4 Bft)
21.10.2008 10:14 11,3 C 88 % 1002,5 hPa 0,0 l/m 25,9 km/h (4 Bft) W-SW 255 0 min 0 W/m 9,4 C 3,4 C 25,9 km/h (4 Bft)
21.10.2008 10:19 11,3 C 88 % 1002,5 hPa 0,0 l/m 25,6 km/h (4 Bft) W 260 0 min 0 W/m 9,4 C 3,4 C 25,6 km/h (4 Bft)
21.10.2008 10:24 11,4 C 88 % 1002,5 hPa 0,0 l/m 25,9 km/h (4 Bft) W 260 0 min 0 W/m 9,5 C 3,5 C 25,9 km/h (4 Bft)
21.10.2008 10:29 11,5 C 88 % 1002,5 hPa 0,0 l/m 19,2 km/h (3 Bft) W 260 0 min 0 W/m 9,6 C 5,5 C 19,2 km/h (3 Bft)
21.10.2008 10:34 11,6 C 88 % 1002,5 hPa 0,0 l/m 24,2 km/h (4 Bft) W 265 0 min 0 W/m 9,7 C 4,2 C 24,2 km/h (4 Bft)
21.10.2008 10:39 11,6 C 88 % 1002,5 hPa 0,0 l/m 31,8 km/h (5 Bft) W-SW 255 0 min 0 W/m 9,7 C 2,6 C 31,8 km/h (5 Bft)
21.10.2008 10:44 11,6 C 88 % 1002,5 hPa 0,0 l/m 30,6 km/h (5 Bft) W 260 0 min 0 W/m 9,7 C 2,8 C 30,6 km/h (5 Bft)
21.10.2008 10:49 11,6 C 87 % 1002,5 hPa 0,0 l/m 34,6 km/h (5 Bft) W 270 0 min 0 W/m 9,5 C 2,1 C 34,6 km/h (5 Bft)
21.10.2008 10:54 11,6 C 88 % 1002,5 hPa 0,0 l/m 26,8 km/h (4 Bft) W 260 0 min 0 W/m 9,7 C 3,6 C 26,8 km/h (4 Bft)
21.10.2008 10:59 11,7 C 88 % 1002,5 hPa 0,0 l/m 23,7 km/h (4 Bft) W-SW 255 0 min 0 W/m 9,8 C 4,5 C 23,7 km/h (4 Bft)
21.10.2008 11:04 11,8 C 88 % 1002,5 hPa 0,0 l/m 30,3 km/h (5 Bft) W-SW 255 0 min 0 W/m 9,9 C 3,1 C 30,3 km/h (5 Bft)
21.10.2008 11:09 12,0 C 88 % 1002,5 hPa 0,0 l/m 25,1 km/h (4 Bft) W 260 0 min 0 W/m 10,1 C 4,5 C 25,1 km/h (4 Bft)
21.10.2008 11:14 12,0 C 87 % 1003,5 hPa 0,0 l/m 28,8 km/h (5 Bft) W 260 0 min 0 W/m 9,9 C 3,7 C 28,8 km/h (5 Bft)
21.10.2008 11:19 12,0 C 88 % 1003,5 hPa 0,0 l/m 31,3 km/h (5 Bft) W 260 0 min 0 W/m 10,1 C 3,2 C 31,3 km/h (5 Bft)
21.10.2008 11:24 11,9 C 88 % 1003,5 hPa 0,0 l/m 31,3 km/h (5 Bft) W 260 0 min 0 W/m 10,0 C 3,1 C 31,3 km/h (5 Bft)
21.10.2008 11:29 11,8 C 88 % 1003,5 hPa 0,0 l/m 31,1 km/h (5 Bft) W 260 0 min 0 W/m 9,9 C 3,0 C 31,1 km/h (5 Bft)
21.10.2008 11:34 11,6 C 89 % 1003,5 hPa 0,0 l/m 31,1 km/h (5 Bft) W 260 0 min 0 W/m 9,8 C 2,7 C 31,1 km/h (5 Bft)
21.10.2008 11:39 11,6 C 89 % 1003,5 hPa 0,0 l/m 31,9 km/h (5 Bft) W 260 0 min 0 W/m 9,8 C 2,5 C 31,9 km/h (5 Bft)
21.10.2008 11:44 11,6 C 89 % 1003,5 hPa 0,0 l/m 31,9 km/h (5 Bft) W 260 0 min 0 W/m 9,8 C 2,5 C 31,9 km/h (5 Bft)
21.10.2008 11:49 11,6 C 89 % 1003,5 hPa 0,0 l/m 31,9 km/h (5 Bft) W 260 0 min 0 W/m 9,8 C 2,5 C 31,9 km/h (5 Bft)
21.10.2008 11:54 11,5 C 89 % 1003,5 hPa 0,0 l/m 23,8 km/h (4 Bft) W 260 0 min 0 W/m 9,8 C 4,2 C 23,8 km/h (4 Bft)
21.10.2008 11:59 11,5 C 89 % 1003,5 hPa 0,0 l/m 23,8 km/h (4 Bft) W 260 0 min 0 W/m 9,8 C 4,2 C 23,8 km/h (4 Bft)
21.10.2008 12:04 11,5 C 89 % 1003,5 hPa 0,0 l/m 23,8 km/h (4 Bft) W 260 0 min 0 W/m 9,8 C 4,2 C 23,8 km/h (4 Bft)
21.10.2008 12:09 11,5 C 89 % 1003,5 hPa 0,0 l/m 23,8 km/h (4 Bft) W 260 0 min 0 W/m 9,8 C 4,2 C 23,8 km/h (4 Bft)
21.10.2008 12:14 11,6 C 89 % 1003,5 hPa 0,0 l/m 26,4 km/h (4 Bft) W-SW 255 0 min 0 W/m 9,8 C 3,7 C 26,4 km/h (4 Bft)
21.10.2008 12:19 11,6 C 88 % 1003,5 hPa 0,0 l/m 26,4 km/h (4 Bft) W-SW 255 0 min 0 W/m 9,7 C 3,7 C 26,4 km/h (4 Bft)
21.10.2008 12:24 11,6 C 88 % 1003,5 hPa 0,0 l/m 26,4 km/h (4 Bft) W-SW 255 0 min 0 W/m 9,7 C 3,7 C 26,4 km/h (4 Bft)
21.10.2008 12:29 11,6 C 87 % 1003,5 hPa 0,0 l/m 30,7 km/h (5 Bft) W 260 0 min 0 W/m 9,5 C 2,8 C 30,7 km/h (5 Bft)
21.10.2008 12:34 11,7 C 87 % 1003,5 hPa 0,0 l/m 30,7 km/h (5 Bft) W 260 0 min 0 W/m 9,6 C 2,9 C 30,7 km/h (5 Bft)
21.10.2008 12:39 11,6 C 87 % 1003,5 hPa 0,0 l/m 30,7 km/h (5 Bft) W 260 0 min 0 W/m 9,5 C 2,8 C 30,7 km/h (5 Bft)
21.10.2008 12:44 11,7 C 86 % 1003,5 hPa 0,0 l/m 30,7 km/h (5 Bft) W 260 0 min 0 W/m 9,4 C 2,9 C 30,7 km/h (5 Bft)
21.10.2008 12:49 11,8 C 85 % 1003,5 hPa 0,0 l/m 32,7 km/h (5 Bft) W 265 0 min 0 W/m 9,4 C 2,7 C 32,7 km/h (5 Bft)
21.10.2008 12:54 11,9 C 85 % 1003,5 hPa 0,0 l/m 33,2 km/h (5 Bft) W 265 0 min 0 W/m 9,5 C 2,7 C 33,2 km/h (5 Bft)
21.10.2008 12:59 11,9 C 84 % 1003,5 hPa 0,0 l/m 30,9 km/h (5 Bft) W 265 0 min 0 W/m 9,3 C 3,2 C 30,9 km/h (5 Bft)
21.10.2008 13:03 12,0 C 85 % 1003,5 hPa 0,0 l/m 29,1 km/h (5 Bft) W 260 0 min 0 W/m 9,6 C 3,6 C 29,1 km/h (5 Bft)
21.10.2008 13:09 12,0 C 84 % 1003,5 hPa 0,0 l/m 29,1 km/h (5 Bft) W 260 0 min 0 W/m 9,4 C 3,6 C 29,1 km/h (5 Bft)
21.10.2008 13:14 12,0 C 83 % 1003,5 hPa 0,0 l/m 32,2 km/h (5 Bft) W 260 0 min 0 W/m 9,2 C 3,1 C 32,2 km/h (5 Bft)
21.10.2008 13:19 12,0 C 83 % 1003,5 hPa 0,0 l/m 32,6 km/h (5 Bft) W 270 0 min 0 W/m 9,2 C 3,0 C 32,6 km/h (5 Bft)
21.10.2008 13:24 12,0 C 83 % 1003,5 hPa 0,0 l/m 27,9 km/h (5 Bft) W 260 0 min 0 W/m 9,2 C 3,9 C 27,9 km/h (5 Bft)
21.10.2008 13:29 12,0 C 82 % 1004,5 hPa 0,0 l/m 34,5 km/h (5 Bft) W 260 0 min 0 W/m 9,0 C 2,7 C 34,5 km/h (5 Bft)
21.10.2008 13:34 12,0 C 82 % 1004,5 hPa 0,0 l/m 35,6 km/h (5 Bft) W 260 0 min 0 W/m 9,0 C 2,5 C 35,6 km/h (5 Bft)
21.10.2008 13:39 12,0 C 82 % 1004,5 hPa 0,0 l/m 32,3 km/h (5 Bft) W 265 0 min 0 W/m 9,0 C 3,0 C 32,3 km/h (5 Bft)
21.10.2008 13:44 12,0 C 82 % 1004,5 hPa 0,0 l/m 30,3 km/h (5 Bft) W 265 0 min 0 W/m 9,0 C 3,4 C 30,3 km/h (5 Bft)
21.10.2008 13:49 12,0 C 80 % 1004,5 hPa 0,0 l/m 32,7 km/h (5 Bft) W 270 0 min 0 W/m 8,7 C 3,0 C 32,7 km/h (5 Bft)
21.10.2008 13:54 12,1 C 80 % 1004,5 hPa 0,0 l/m 28,7 km/h (5 Bft) W 260 0 min 0 W/m 8,8 C 3,9 C 28,7 km/h (5 Bft)
21.10.2008 13:58 12,2 C 79 % 1004,5 hPa 0,0 l/m 35,7 km/h (5 Bft) W 275 0 min 0 W/m 8,7 C 2,8 C 35,7 km/h (5 Bft)
21.10.2008 14:04 12,1 C 79 % 1004,5 hPa 0,0 l/m 32,3 km/h (5 Bft) W 270 0 min 0 W/m 8,6 C 3,2 C 32,3 km/h (5 Bft)
21.10.2008 14:09 12,1 C 80 % 1004,5 hPa 0,0 l/m 40,5 km/h (6 Bft) W 265 0 min 0 W/m 8,8 C 1,9 C 40,5 km/h (6 Bft)
21.10.2008 14:14 12,1 C 80 % 1004,5 hPa 0,0 l/m 30,2 km/h (5 Bft) W 265 0 min 0 W/m 8,8 C 3,6 C 30,2 km/h (5 Bft)
21.10.2008 14:18 12,2 C 81 % 1004,5 hPa 0,0 l/m 27,1 km/h (5 Bft) W 270 0 min 0 W/m 9,0 C 4,3 C 27,1 km/h (5 Bft)
21.10.2008 14:24 12,2 C 81 % 1004,5 hPa 0,0 l/m 38,7 km/h (6 Bft) W 270 0 min 0 W/m 9,0 C 2,3 C 38,7 km/h (6 Bft)
21.10.2008 14:29 12,2 C 81 % 1004,5 hPa 0,0 l/m 32,5 km/h (5 Bft) W 270 0 min 0 W/m 9,0 C 3,3 C 32,5 km/h (5 Bft)
21.10.2008 14:34 12,3 C 81 % 1004,5 hPa 0,0 l/m 29,1 km/h (5 Bft) W 270 0 min 0 W/m 9,1 C 4,1 C 29,1 km/h (5 Bft)
21.10.2008 14:39 12,3 C 81 % 1004,5 hPa 0,0 l/m 32,1 km/h (5 Bft) W 265 0 min 0 W/m 9,1 C 3,5 C 32,1 km/h (5 Bft)
21.10.2008 14:44 12,3 C 82 % 1004,5 hPa 0,0 l/m 31,6 km/h (5 Bft) W 265 0 min 0 W/m 9,3 C 3,6 C 31,6 km/h (5 Bft)
21.10.2008 14:49 12,3 C 82 % 1004,5 hPa 0,0 l/m 27,0 km/h (5 Bft) W 270 0 min 0 W/m 9,3 C 4,5 C 27,0 km/h (5 Bft)
21.10.2008 14:54 12,3 C 82 % 1004,5 hPa 0,0 l/m 27,7 km/h (5 Bft) W 270 0 min 0 W/m 9,3 C 4,4 C 27,7 km/h (5 Bft)
21.10.2008 14:59 12,2 C 82 % 1004,5 hPa 0,0 l/m 27,7 km/h (5 Bft) W 270 0 min 0 W/m 9,2 C 4,2 C 27,7 km/h (5 Bft)
21.10.2008 15:04 12,2 C 83 % 1004,5 hPa 0,0 l/m 27,7 km/h (5 Bft) W 270 0 min 0 W/m 9,4 C 4,2 C 27,7 km/h (5 Bft)
21.10.2008 15:09 12,2 C 82 % 1004,5 hPa 0,0 l/m 36,8 km/h (5 Bft) W 270 0 min 0 W/m 9,2 C 2,6 C 36,8 km/h (5 Bft)
21.10.2008 15:14 12,2 C 83 % 1004,5 hPa 0,0 l/m 31,4 km/h (5 Bft) W 265 0 min 0 W/m 9,4 C 3,5 C 31,4 km/h (5 Bft)
21.10.2008 15:19 12,2 C 83 % 1004,5 hPa 0,0 l/m 31,4 km/h (5 Bft) W 265 0 min 0 W/m 9,4 C 3,5 C 31,4 km/h (5 Bft)
21.10.2008 15:24 12,2 C 82 % 1004,5 hPa 0,0 l/m 31,4 km/h (5 Bft) W 265 0 min 0 W/m 9,2 C 3,5 C 31,4 km/h (5 Bft)
21.10.2008 15:29 12,2 C 83 % 1004,5 hPa 0,0 l/m 28,8 km/h (5 Bft) W 270 0 min 0 W/m 9,4 C 4,0 C 28,8 km/h (5 Bft)
21.10.2008 15:34 12,1 C 83 % 1004,5 hPa 0,0 l/m 28,1 km/h (5 Bft) W 265 0 min 0 W/m 9,3 C 4,0 C 28,1 km/h (5 Bft)
21.10.2008 15:39 12,1 C 83 % 1005,5 hPa 0,0 l/m 28,1 km/h (5 Bft) W 265 0 min 0 W/m 9,3 C 4,0 C 28,1 km/h (5 Bft)
21.10.2008 15:44 12,1 C 83 % 1005,5 hPa 0,0 l/m 28,1 km/h (5 Bft) W 265 0 min 0 W/m 9,3 C 4,0 C 28,1 km/h (5 Bft)
21.10.2008 15:49 12,1 C 83 % 1005,5 hPa 0,0 l/m 28,1 km/h (5 Bft) W 265 0 min 0 W/m 9,3 C 4,0 C 28,1 km/h (5 Bft)
21.10.2008 15:54 12,1 C 83 % 1005,5 hPa 0,3 l/m 34,3 km/h (5 Bft) W 270 0 min 0 W/m 9,3 C 2,8 C 34,3 km/h (5 Bft)
21.10.2008 15:59 11,6 C 87 % 1005,5 hPa 0,0 l/m 34,3 km/h (5 Bft) W 270 0 min 0 W/m 9,5 C 2,1 C 34,3 km/h (5 Bft)
21.10.2008 16:04 11,6 C 88 % 1005,5 hPa 0,0 l/m 34,3 km/h (5 Bft) W 270 0 min 0 W/m 9,7 C 2,1 C 34,3 km/h (5 Bft)
21.10.2008 16:09 11,6 C 88 % 1005,5 hPa 0,0 l/m 34,3 km/h (5 Bft) W 270 0 min 0 W/m 9,7 C 2,1 C 34,3 km/h (5 Bft)
21.10.2008 16:14 11,6 C 82 % 1005,5 hPa 0,0 l/m 34,3 km/h (5 Bft) W 270 0 min 0 W/m 8,6 C 2,1 C 34,3 km/h (5 Bft)
21.10.2008 16:19 11,6 C 78 % 1005,5 hPa 0,0 l/m 34,3 km/h (5 Bft) W 270 0 min 0 W/m 7,9 C 2,1 C 34,3 km/h (5 Bft)
21.10.2008 16:24 11,6 C 78 % 1005,5 hPa 0,0 l/m 31,3 km/h (5 Bft) W-NW 290 0 min 0 W/m 7,9 C 2,7 C 31,3 km/h (5 Bft)
21.10.2008 16:29 11,6 C 78 % 1005,5 hPa 0,0 l/m 30,2 km/h (5 Bft) W 275 0 min 0 W/m 7,9 C 2,9 C 30,2 km/h (5 Bft)
21.10.2008 16:34 11,7 C 78 % 1005,5 hPa 0,0 l/m 30,2 km/h (5 Bft) W 275 0 min 0 W/m 8,0 C 3,0 C 30,2 km/h (5 Bft)
21.10.2008 16:39 11,7 C 79 % 1005,5 hPa 0,0 l/m 30,2 km/h (5 Bft) W 275 0 min 0 W/m 8,2 C 3,0 C 30,2 km/h (5 Bft)
21.10.2008 16:44 11,7 C 79 % 1005,5 hPa 0,0 l/m 30,2 km/h (5 Bft) W 275 0 min 0 W/m 8,2 C 3,0 C 30,2 km/h (5 Bft)
21.10.2008 16:49 11,7 C 80 % 1005,5 hPa 0,0 l/m 30,2 km/h (5 Bft) W 275 0 min 0 W/m 8,4 C 3,0 C 30,2 km/h (5 Bft)
21.10.2008 16:54 11,7 C 79 % 1006,5 hPa 0,0 l/m 30,2 km/h (5 Bft) W 275 0 min 0 W/m 8,2 C 3,0 C 30,2 km/h (5 Bft)
21.10.2008 16:59 11,7 C 79 % 1006,5 hPa 0,0 l/m 30,2 km/h (5 Bft) W 275 0 min 0 W/m 8,2 C 3,0 C 30,2 km/h (5 Bft)
21.10.2008 17:04 11,7 C 78 % 1006,5 hPa 0,0 l/m 30,2 km/h (5 Bft) W 275 0 min 0 W/m 8,0 C 3,0 C 30,2 km/h (5 Bft)
21.10.2008 17:09 11,7 C 77 % 1006,5 hPa 0,0 l/m 30,2 km/h (5 Bft) W 275 0 min 0 W/m 7,8 C 3,0 C 30,2 km/h (5 Bft)
21.10.2008 17:14 11,7 C 78 % 1006,5 hPa 0,0 l/m 30,2 km/h (5 Bft) W 275 0 min 0 W/m 8,0 C 3,0 C 30,2 km/h (5 Bft)
21.10.2008 17:19 11,8 C 79 % 1006,5 hPa 0,0 l/m 30,2 km/h (5 Bft) W 275 0 min 0 W/m 8,3 C 3,1 C 30,2 km/h (5 Bft)
21.10.2008 17:24 11,8 C 78 % 1006,5 hPa 0,0 l/m 30,2 km/h (5 Bft) W 275 0 min 0 W/m 8,1 C 3,1 C 30,2 km/h (5 Bft)
21.10.2008 17:29 11,7 C 77 % 1006,5 hPa 0,0 l/m 30,2 km/h (5 Bft) W 275 0 min 0 W/m 7,8 C 3,0 C 30,2 km/h (5 Bft)
21.10.2008 17:34 11,7 C 78 % 1006,5 hPa 0,0 l/m 30,2 km/h (5 Bft) W 275 0 min 0 W/m 8,0 C 3,0 C 30,2 km/h (5 Bft)
21.10.2008 17:39 11,7 C 78 % 1006,5 hPa 0,0 l/m 30,2 km/h (5 Bft) W 275 0 min 0 W/m 8,0 C 3,0 C 30,2 km/h (5 Bft)
21.10.2008 17:44 11,6 C 76 % 1006,5 hPa 0,0 l/m 30,2 km/h (5 Bft) W 275 0 min 0 W/m 7,5 C 2,9 C 30,2 km/h (5 Bft)
21.10.2008 17:49 11,5 C 76 % 1006,5 hPa 0,0 l/m 30,2 km/h (5 Bft) W 275 0 min 0 W/m 7,4 C 2,7 C 30,2 km/h (5 Bft)
21.10.2008 17:54 11,4 C 74 % 1006,5 hPa 0,0 l/m 24,6 km/h (4 Bft) W-NW 290 0 min 0 W/m 6,9 C 3,8 C 24,6 km/h (4 Bft)
21.10.2008 17:59 11,5 C 75 % 1006,5 hPa 0,0 l/m 24,6 km/h (4 Bft) W-NW 290 0 min 0 W/m 7,2 C 4,0 C 24,6 km/h (4 Bft)
21.10.2008 18:04 11,5 C 77 % 1006,5 hPa 0,0 l/m 24,6 km/h (4 Bft) W-NW 290 0 min 0 W/m 7,6 C 4,0 C 24,6 km/h (4 Bft)
21.10.2008 18:09 11,4 C 78 % 1006,5 hPa 0,0 l/m 24,6 km/h (4 Bft) W-NW 290 0 min 0 W/m 7,7 C 3,8 C 24,6 km/h (4 Bft)
21.10.2008 18:14 11,3 C 79 % 1006,5 hPa 0,0 l/m 19,8 km/h (3 Bft) W-NW 290 0 min 0 W/m 7,8 C 5,0 C 19,8 km/h (3 Bft)
21.10.2008 18:19 11,3 C 78 % 1007,5 hPa 0,0 l/m 19,8 km/h (3 Bft) W-NW 290 0 min 0 W/m 7,6 C 5,0 C 19,8 km/h (3 Bft)
21.10.2008 18:24 11,3 C 77 % 1007,5 hPa 0,0 l/m 19,8 km/h (3 Bft) W-NW 290 0 min 0 W/m 7,4 C 5,0 C 19,8 km/h (3 Bft)
21.10.2008 18:29 11,2 C 78 % 1007,5 hPa 0,0 l/m 19,8 km/h (3 Bft) W-NW 290 0 min 0 W/m 7,5 C 4,9 C 19,8 km/h (3 Bft)
21.10.2008 18:34 11,2 C 77 % 1007,5 hPa 0,0 l/m 19,8 km/h (3 Bft) W-NW 290 0 min 0 W/m 7,3 C 4,9 C 19,8 km/h (3 Bft)
21.10.2008 18:39 11,1 C 76 % 1007,5 hPa 0,0 l/m 19,8 km/h (3 Bft) W-NW 290 0 min 0 W/m 7,0 C 4,8 C 19,8 km/h (3 Bft)
21.10.2008 18:44 11,0 C 76 % 1007,5 hPa 0,0 l/m 19,8 km/h (3 Bft) W-NW 290 0 min 0 W/m 6,9 C 4,6 C 19,8 km/h (3 Bft)
21.10.2008 18:49 11,0 C 76 % 1007,5 hPa 0,0 l/m 19,8 km/h (3 Bft) W-NW 290 0 min 0 W/m 6,9 C 4,6 C 19,8 km/h (3 Bft)
21.10.2008 18:54 11,0 C 76 % 1007,5 hPa 0,0 l/m 19,8 km/h (3 Bft) W-NW 290 0 min 0 W/m 6,9 C 4,6 C 19,8 km/h (3 Bft)
21.10.2008 18:59 11,0 C 77 % 1007,5 hPa 0,0 l/m 19,8 km/h (3 Bft) W-NW 290 0 min 0 W/m 7,1 C 4,6 C 19,8 km/h (3 Bft)
21.10.2008 19:04 11,0 C 77 % 1007,5 hPa 0,0 l/m 19,8 km/h (3 Bft) W-NW 290 0 min 0 W/m 7,1 C 4,6 C 19,8 km/h (3 Bft)
21.10.2008 19:09 11,0 C 78 % 1007,5 hPa 0,0 l/m 19,8 km/h (3 Bft) W-NW 290 0 min 0 W/m 7,3 C 4,6 C 19,8 km/h (3 Bft)
21.10.2008 19:14 11,0 C 78 % 1007,5 hPa 0,0 l/m 19,8 km/h (3 Bft) W-NW 290 0 min 0 W/m 7,3 C 4,6 C 19,8 km/h (3 Bft)
21.10.2008 19:19 11,1 C 78 % 1007,5 hPa 0,0 l/m 19,8 km/h (3 Bft) W-NW 290 0 min 0 W/m 7,4 C 4,8 C 19,8 km/h (3 Bft)
21.10.2008 19:24 11,0 C 78 % 1007,5 hPa 0,0 l/m 19,8 km/h (3 Bft) W-NW 290 0 min 0 W/m 7,3 C 4,6 C 19,8 km/h (3 Bft)
21.10.2008 19:29 10,9 C 78 % 1007,5 hPa 0,0 l/m 19,8 km/h (3 Bft) W-NW 290 0 min 0 W/m 7,2 C 4,5 C 19,8 km/h (3 Bft)
21.10.2008 19:34 10,8 C 78 % 1007,5 hPa 0,0 l/m 19,8 km/h (3 Bft) W-NW 290 0 min 0 W/m 7,1 C 4,4 C 19,8 km/h (3 Bft)
21.10.2008 19:39 10,8 C 78 % 1007,5 hPa 0,0 l/m 19,8 km/h (3 Bft) W-NW 290 0 min 0 W/m 7,1 C 4,4 C 19,8 km/h (3 Bft)
21.10.2008 19:44 10,8 C 79 % 1008,5 hPa 0,0 l/m 19,8 km/h (3 Bft) W-NW 290 0 min 0 W/m 7,3 C 4,4 C 19,8 km/h (3 Bft)
21.10.2008 19:49 10,7 C 79 % 1008,5 hPa 0,0 l/m 19,8 km/h (3 Bft) W-NW 290 0 min 0 W/m 7,2 C 4,3 C 19,8 km/h (3 Bft)
21.10.2008 19:54 10,6 C 79 % 1008,5 hPa 0,0 l/m 19,8 km/h (3 Bft) W-NW 290 0 min 0 W/m 7,1 C 4,1 C 19,8 km/h (3 Bft)
21.10.2008 19:59 10,6 C 79 % 1008,5 hPa 0,0 l/m 19,8 km/h (3 Bft) W-NW 290 0 min 0 W/m 7,1 C 4,1 C 19,8 km/h (3 Bft)
21.10.2008 20:04 10,6 C 80 % 1008,5 hPa 0,0 l/m 19,8 km/h (3 Bft) W-NW 290 0 min 0 W/m 7,3 C 4,1 C 19,8 km/h (3 Bft)
21.10.2008 20:09 10,6 C 79 % 1008,5 hPa 0,0 l/m 19,8 km/h (3 Bft) W-NW 290 0 min 0 W/m 7,1 C 4,1 C 19,8 km/h (3 Bft)
21.10.2008 20:14 10,5 C 79 % 1008,5 hPa 0,0 l/m 32,1 km/h (5 Bft) W 260 0 min 0 W/m 7,0 C 0,9 C 32,1 km/h (5 Bft)
21.10.2008 20:19 10,5 C 78 % 1008,5 hPa 0,0 l/m 32,1 km/h (5 Bft) W 260 0 min 0 W/m 6,8 C 0,9 C 32,1 km/h (5 Bft)
21.10.2008 20:24 10,5 C 79 % 1008,5 hPa 0,0 l/m 32,1 km/h (5 Bft) W 260 0 min 0 W/m 7,0 C 0,9 C 32,1 km/h (5 Bft)
21.10.2008 20:29 10,5 C 79 % 1008,5 hPa 0,0 l/m 32,1 km/h (5 Bft) W 260 0 min 0 W/m 7,0 C 0,9 C 32,1 km/h (5 Bft)
21.10.2008 20:34 10,4 C 78 % 1008,5 hPa 0,0 l/m 32,1 km/h (5 Bft) W 260 0 min 0 W/m 6,7 C 0,8 C 32,1 km/h (5 Bft)
21.10.2008 20:39 10,4 C 79 % 1008,5 hPa 0,0 l/m 32,1 km/h (5 Bft) W 260 0 min 0 W/m 6,9 C 0,8 C 32,1 km/h (5 Bft)
21.10.2008 20:44 10,4 C 78 % 1008,5 hPa 0,0 l/m 32,1 km/h (5 Bft) W 260 0 min 0 W/m 6,7 C 0,8 C 32,1 km/h (5 Bft)
21.10.2008 20:49 10,4 C 79 % 1008,5 hPa 0,0 l/m 32,1 km/h (5 Bft) W 260 0 min 0 W/m 6,9 C 0,8 C 32,1 km/h (5 Bft)
21.10.2008 20:54 10,3 C 80 % 1008,5 hPa 0,0 l/m 28,2 km/h (5 Bft) W 265 0 min 0 W/m 7,0 C 1,5 C 28,2 km/h (5 Bft)
21.10.2008 20:59 10,3 C 81 % 1008,5 hPa 0,0 l/m 28,2 km/h (5 Bft) W 265 0 min 0 W/m 7,2 C 1,5 C 28,2 km/h (5 Bft)
21.10.2008 21:04 10,3 C 81 % 1009,5 hPa 0,0 l/m 28,2 km/h (5 Bft) W 265 0 min 0 W/m 7,2 C 1,5 C 28,2 km/h (5 Bft)
21.10.2008 21:09 10,3 C 80 % 1009,5 hPa 0,0 l/m 26,4 km/h (4 Bft) W 270 0 min 0 W/m 7,0 C 1,9 C 26,4 km/h (4 Bft)
21.10.2008 21:14 10,3 C 81 % 1009,5 hPa 0,0 l/m 26,4 km/h (4 Bft) W 270 0 min 0 W/m 7,2 C 1,9 C 26,4 km/h (4 Bft)
21.10.2008 21:19 10,3 C 81 % 1009,5 hPa 0,0 l/m 26,4 km/h (4 Bft) W 270 0 min 0 W/m 7,2 C 1,9 C 26,4 km/h (4 Bft)
21.10.2008 21:24 10,2 C 81 % 1009,5 hPa 0,0 l/m 26,4 km/h (4 Bft) W 270 0 min 0 W/m 7,1 C 1,8 C 26,4 km/h (4 Bft)
21.10.2008 21:29 10,2 C 81 % 1009,5 hPa 0,0 l/m 26,4 km/h (4 Bft) W 270 0 min 0 W/m 7,1 C 1,8 C 26,4 km/h (4 Bft)
21.10.2008 21:34 10,1 C 81 % 1009,5 hPa 0,0 l/m 26,4 km/h (4 Bft) W 270 0 min 0 W/m 7,0 C 1,6 C 26,4 km/h (4 Bft)
21.10.2008 21:39 10,0 C 81 % 1009,5 hPa 0,0 l/m 26,4 km/h (4 Bft) W 270 0 min 0 W/m 6,9 C 1,5 C 26,4 km/h (4 Bft)
21.10.2008 21:44 10,0 C 82 % 1009,5 hPa 0,0 l/m 26,4 km/h (4 Bft) W 270 0 min 0 W/m 7,1 C 1,5 C 26,4 km/h (4 Bft)
21.10.2008 21:49 9,9 C 82 % 1009,5 hPa 0,0 l/m 26,4 km/h (4 Bft) W 270 0 min 0 W/m 7,0 C 1,3 C 26,4 km/h (4 Bft)
21.10.2008 21:54 9,9 C 82 % 1009,5 hPa 0,0 l/m 26,4 km/h (4 Bft) W 270 0 min 0 W/m 7,0 C 1,3 C 26,4 km/h (4 Bft)
21.10.2008 21:59 9,8 C 82 % 1009,5 hPa 0,0 l/m 26,4 km/h (4 Bft) W 270 0 min 0 W/m 6,9 C 1,2 C 26,4 km/h (4 Bft)
21.10.2008 22:04 9,7 C 82 % 1009,5 hPa 0,0 l/m 26,4 km/h (4 Bft) W 270 0 min 0 W/m 6,8 C 1,1 C 26,4 km/h (4 Bft)
21.10.2008 22:09 9,7 C 83 % 1010,5 hPa 0,0 l/m 26,4 km/h (4 Bft) W 270 0 min 0 W/m 7,0 C 1,1 C 26,4 km/h (4 Bft)
21.10.2008 22:14 9,8 C 82 % 1010,5 hPa 0,0 l/m 26,4 km/h (4 Bft) W 270 0 min 0 W/m 6,9 C 1,2 C 26,4 km/h (4 Bft)
21.10.2008 22:19 9,7 C 82 % 1010,5 hPa 0,0 l/m 26,4 km/h (4 Bft) W 270 0 min 0 W/m 6,8 C 1,1 C 26,4 km/h (4 Bft)
21.10.2008 22:24 9,7 C 82 % 1010,5 hPa 0,0 l/m 26,4 km/h (4 Bft) W 270 0 min 0 W/m 6,8 C 1,1 C 26,4 km/h (4 Bft)
21.10.2008 22:29 9,6 C 83 % 1010,5 hPa 0,0 l/m 26,4 km/h (4 Bft) W 270 0 min 0 W/m 6,9 C 0,9 C 26,4 km/h (4 Bft)
21.10.2008 22:34 9,5 C 83 % 1010,5 hPa 0,0 l/m 26,4 km/h (4 Bft) W 270 0 min 0 W/m 6,8 C 0,8 C 26,4 km/h (4 Bft)
21.10.2008 22:39 9,5 C 83 % 1010,5 hPa 0,0 l/m 26,3 km/h (4 Bft) W 265 0 min 0 W/m 6,8 C 0,8 C 26,3 km/h (4 Bft)
21.10.2008 22:44 9,4 C 83 % 1010,5 hPa 0,0 l/m 26,3 km/h (4 Bft) W 265 0 min 0 W/m 6,7 C 0,7 C 26,3 km/h (4 Bft)
21.10.2008 22:49 9,4 C 83 % 1010,5 hPa 0,0 l/m 26,3 km/h (4 Bft) W 265 0 min 0 W/m 6,7 C 0,7 C 26,3 km/h (4 Bft)
21.10.2008 22:54 9,3 C 83 % 1010,5 hPa 0,0 l/m 26,3 km/h (4 Bft) W 265 0 min 0 W/m 6,6 C 0,5 C 26,3 km/h (4 Bft)
21.10.2008 22:59 9,3 C 83 % 1010,5 hPa 0,0 l/m 26,3 km/h (4 Bft) W 265 0 min 0 W/m 6,6 C 0,5 C 26,3 km/h (4 Bft)
21.10.2008 23:04 9,4 C 84 % 1010,5 hPa 0,0 l/m 26,3 km/h (4 Bft) W 265 0 min 0 W/m 6,8 C 0,7 C 26,3 km/h (4 Bft)
21.10.2008 23:09 9,4 C 84 % 1010,5 hPa 0,0 l/m 26,3 km/h (4 Bft) W 265 0 min 0 W/m 6,8 C 0,7 C 26,3 km/h (4 Bft)
21.10.2008 23:14 9,4 C 84 % 1010,5 hPa 0,0 l/m 26,3 km/h (4 Bft) W 265 0 min 0 W/m 6,8 C 0,7 C 26,3 km/h (4 Bft)
21.10.2008 23:19 9,3 C 84 % 1011,5 hPa 0,0 l/m 26,3 km/h (4 Bft) W 265 0 min 0 W/m 6,7 C 0,5 C 26,3 km/h (4 Bft)
21.10.2008 23:24 9,2 C 84 % 1011,5 hPa 0,0 l/m 26,3 km/h (4 Bft) W 265 0 min 0 W/m 6,6 C 0,4 C 26,3 km/h (4 Bft)
21.10.2008 23:29 9,2 C 84 % 1011,5 hPa 0,0 l/m 26,3 km/h (4 Bft) W 265 0 min 0 W/m 6,6 C 0,4 C 26,3 km/h (4 Bft)
21.10.2008 23:34 9,2 C 84 % 1011,5 hPa 0,0 l/m 26,3 km/h (4 Bft) W 265 0 min 0 W/m 6,6 C 0,4 C 26,3 km/h (4 Bft)
21.10.2008 23:39 9,2 C 85 % 1011,5 hPa 0,0 l/m 26,3 km/h (4 Bft) W 265 0 min 0 W/m 6,8 C 0,4 C 26,3 km/h (4 Bft)
21.10.2008 23:44 9,4 C 85 % 1011,5 hPa 0,0 l/m 26,3 km/h (4 Bft) W 265 0 min 0 W/m 7,0 C 0,7 C 26,3 km/h (4 Bft)
21.10.2008 23:49 9,4 C 86 % 1011,5 hPa 0,0 l/m 26,3 km/h (4 Bft) W 265 0 min 0 W/m 7,2 C 0,7 C 26,3 km/h (4 Bft)
21.10.2008 23:53 9,2 C 86 % 1011,5 hPa 0,0 l/m 26,3 km/h (4 Bft) W 265 0 min 0 W/m 7,0 C 0,4 C 26,3 km/h (4 Bft)
21.10.2008 23:59 9,1 C 86 % 1011,5 hPa 0,0 l/m 26,3 km/h (4 Bft) W 265 0 min 0 W/m 6,9 C 0,3 C 26,3 km/h (4 Bft)
_ Min-Zeit 23:59 17:54 04:09 - 00:04 - - - - 22:54 23:59 00:04
Minimum _ 9,1 C 74 % 999,5 hPa - 13,2 km/h (3 Bft) - - - - 6,6 C 0,3 C 13,2 km/h (3 Bft)
_ Max-Zeit 03:59 06:54 23:19 05:24 14:09 - - 00:04 00:04 05:19 00:34 14:09
Maximum _ 14,4 C 94 % 1011,5 hPa 0,3 l/m 40,5 km/h
W (6 Bft)
- - 0 min 0 W/m 12,2 C 10,4 C 40,5 km/h
W (6 Bft)
Durchschnitt _ 11,9 C 85 % 1004,2 hPa #2,7 l/m 24,8 km/h (4 Bft) W - #0 min. 0 W/m 9,4 C 4,6 C 24,8 km/h (4 Bft)
copyright by Holger Just